Torna al catalogo

BEIDOU 3M10

AttivoNavigazioneMEO
NORAD 43582·PAYLOAD·🇨🇳 China

Lanciato Jul 29, 2018 da Xichang Satellite Launch Center

Loading…

Prossimi Passaggi (prossime 24 ore)

TLE

AggiornatoSource: CelesTrak SupGP

Epoca: Sep 14, 2026, 00:00 UTC

1 43582C 18062B   26257.00000000  .00000000  00000+0  00000+0 0  2576
2 43582  54.0821 179.2760 0006680  32.0142 257.2271  1.86228155    13

Traccia BEIDOU 3M10 in tempo reale con AllMySat

Download on the App Store